Location: Oberkirch
(48.5323°N, 8.0787°E)
Time: 17:22:53
(UTC+00:00)

Cosmos 2360 Rocket - Pass Details

Date: 08 November 2025
Orbit: 833 x 843 km, 71.0° (Epoch: 10 December)

Event Time Altitude Azimuth Distance (km) Brightness Sun altitude
Exits shadow 05:41:11 - 304° (NW) 2,659 4.2 -7.6°
Reaches altitude 10° 05:42:34 10° 317° (NW) 2,472 4.1 -7.4°
Maximum altitude 05:44:10 11° 334° (NNW) 2,393 4.2 -7.1°
Drops below altitude 10° 05:45:46 10° 350° (N) 2,473 4.4 -6.9°
Sets 05:50:27 0° 25° (NNE) 3,410 5.5 -6.2°
